Location: Forsnäset
(66.3500°N, 22.3000°E)
Time: 02:00:22
(UTC+00:00)

Daily predictions for brighter satellites

Satellite Brightness Start Highest point End
(mag) Time Altitude Azimuth Time Altitude Azimuth Time Altitude Azimuth
Cosmos 2263 Rocket 2.8 00:09:56 51° ENE 00:09:56 51° ENE 00:14:21 10° NE
NPP 4.5 00:06:15 10° NNE 00:10:59 43° E 00:10:59 43° E
SL-08 R/B 4.5 00:09:26 10° NNW 00:15:05 76° N 00:15:05 76° N
Cosmos 2366 rocket 4.5 00:10:49 10° NNW 00:15:31 48° NW 00:15:31 48° NW
CZ-2D R/B 3.0 00:14:16 10° NNE 00:18:58 42° E 00:18:58 42° E
Resurs 1-4 Rocket 2.9 00:14:56 10° NNE 00:19:38 44° E 00:19:38 44° E
Meteor 1-12 Rocket 4.4 00:20:38 77° NNE 00:20:38 77° NNE 00:26:14 10° NNE
Nimbus 7 Rocket 4.4 00:14:23 10° NNE 00:20:08 79° N 00:20:08 79° N
CZ-2C R/B 3.2 00:24:32 52° NNW 00:24:32 52° NNW 00:28:47 10° NNW
Cosmos 2098 Rocket 4.5 00:26:39 46° ESE 00:27:15 47° E 00:33:23 10° NNE
Cosmos 2219 3.4 00:27:59 70° NE 00:27:59 70° NE 00:33:05 10° NE
Cosmos 2150 Rocket 4.4 00:31:25 60° ENE 00:31:25 60° ENE 00:35:52 10° NE
Cosmos 1607 4.1 00:40:00 63° SE 00:40:00 63° SE 00:45:27 10° ESE
Meteor 1-15 Rocket 4.4 00:39:45 64° NNW 00:39:45 64° NNW 00:44:44 10° NNE
Cosmos 968 Rocket 4.0 00:34:37 10° NW 00:39:48 56° NNE 00:44:55 10° ESE
Cosmos 1733 Rocket 4.4 00:41:41 35° N 00:41:41 35° N 00:44:23 10° NNE
CZ-2C R/B 4.1 00:35:30 10° NNE 00:40:26 36° E 00:40:55 36° ESE
Meteor 1-11 4.4 00:37:42 10° NNW 00:42:31 64° NNW 00:42:31 64° NNW
Cosmos 1605 Rocket 4.1 00:43:44 10° NNW 00:49:54 71° ENE 00:51:30 50° SE
IDEFIX/ARIANE 42P 2.8 00:45:37 10° NNE 00:50:32 66° E 00:50:32 66° E
Cosmos 1125 Rocket 3.8 00:51:35 65° N 00:51:35 65° N 00:56:15 10° NE
Cosmos 1937 Rocket 4.4 00:50:39 40° NNW 00:51:06 41° NNW 00:56:01 10° NE
Cosmos 1821 Rocket 4.3 00:45:23 10° NNW 00:50:45 53° WNW 00:50:45 53° WNW
ALOS 3.4 00:56:23 10° NNE 01:00:40 35° E 01:00:58 35° ESE
Cosmos 2227 Rocket 2.3 01:02:14 64° NW 01:02:32 65° NNW 01:08:12 10° ENE
Cosmos 1346 Rocket 4.4 01:05:13 31° ENE 01:05:13 31° ENE 01:08:02 10° NNE
Cosmos 1241 Rocket 4.3 01:14:03 72° S 01:14:17 73° SSE 01:20:29 10° ENE
Cosmos 1455 4.0 01:17:35 28° NNE 01:17:35 28° NNE 01:19:25 10° NNE
Cosmos 1844 Rocket 2.9 01:16:41 56° SE 01:16:57 57° SE 01:22:32 10° NE
Meteor 1-16 Rocket 4.2 01:16:48 80° SW 01:17:09 87° WNW 01:23:09 10° NNE
Cosmos 1934 Rocket 3.9 01:15:51 10° NNW 01:22:01 67° W 01:22:01 67° W
SJ 16-02 2.1 01:20:57 26° NNW 01:23:09 51° NE 01:27:27 10° ESE
DMSP B5D2-2 4.3 01:22:03 28° SE 01:24:50 70° ENE 01:30:06 10° NNW
Cosmos 2082 3.7 01:25:33 69° WNW 01:26:04 75° NNW 01:31:51 10° ENE
Cosmos 1818 3.7 01:29:16 59° SSE 01:29:16 59° SSE 01:33:54 10° ESE
IRAS Rocket 4.1 01:24:56 10° NNE 01:30:30 83° ESE 01:31:06 71° S
Cosmos 1953 3.4 01:32:12 39° N 01:32:12 39° N 01:34:49 10° NNE
ADEOS II 2.0 01:25:53 10° NNE 01:31:11 77° ESE 01:31:39 70° SSE
Cosmos 2082 Rocket 4.1 01:27:52 10° NW 01:38:08 16° SSE 01:39:09 10° SSE
Cosmos 2173 Rocket 4.3 01:27:50 10° NNW 01:33:55 62° ENE 01:40:01 10° SE
H-2A R/B 4.1 01:31:08 10° NNE 01:34:05 18° NNW 01:34:24 18° NW
CZ-2C R/B 3.8 01:32:28 10° NNE 01:36:33 30° E 01:38:45 21° SE
Cosmos 2181 Rocket 4.0 01:38:18 56° W 01:38:58 60° WNW 01:45:06 10° NNE
Cosmos 2297 Rocket 2.7 01:37:18 40° WNW 01:39:01 55° N 01:44:38 10° ENE
COSMO-SKYMED 1 4.3 01:35:52 10° ESE 01:39:46 33° NE 01:43:41 10° NNW
Cosmos 1844 3.7 01:40:05 58° SSE 01:40:46 64° SE 01:46:18 10° NE
Okean 2 Rocket 4.0 01:40:15 40° SE 01:41:02 44° E 01:45:16 10° NNE
Cosmos 1535 Rocket 4.4 01:35:20 10° NNW 01:41:25 65° W 01:42:00 62° SW
COSMOS 2455 2.8 01:41:00 64° SSW 01:41:49 74° SSE 01:47:52 10° ENE
MSX 3.7 01:36:16 10° NNE 01:42:03 81° WNW 01:42:52 66° SW
Cosmos 2298 Rocket 4.2 01:42:52 57° WNW 01:43:21 60° NW 01:48:37 10° NE
Cosmos 2227 4.0 01:43:31 71° SW 01:44:11 89° SE 01:49:52 10° NE
Meteor 2-10 Rocket 4.0 01:45:38 50° WNW 01:46:00 51° NW 01:51:26 10° NNE
SL-16 R/B 3.3 01:48:54 34° WNW 01:48:54 34° WNW 01:53:18 10° NNW
COBE Rocket 3.9 01:43:41 10° NNE 01:48:52 87° ESE 01:49:33 69° S
CZ-4C R/B 3.7 01:48:02 20° SSE 01:49:51 24° SE 01:54:43 10° ENE
COSMOS 2406 4.1 01:44:39 10° NW 01:52:47 33° SSE 01:55:57 10° SSE
Timation 1 Rocket 4.3 01:46:41 26° WNW 01:50:20 85° NNE 01:56:21 10° ESE
Cosmos 2278 Rocket 4.1 01:46:59 12° SSE 01:50:53 23° ESE 01:55:15 10° ENE
Envisat 4.0 01:46:21 10° NNE 01:51:14 43° E 01:53:53 24° SSE
NPP 3.6 01:46:36 10° NNE 01:51:58 65° WNW 01:52:30 61° W
Helios 1A 4.5 01:48:21 10° ESE 01:52:06 36° NE 01:55:53 10° NNW
Cosmos 2263 Rocket 2.3 01:51:36 54° WNW 01:52:45 67° NNW 01:58:28 10° ENE
Nadezhda 3 Rocket 3.9 01:55:23 54° SW 01:56:52 76° WNW 02:03:10 10° NNE
Cosmos 1782 Rocket 3.9 01:57:38 55° NNW 01:57:38 55° NNW 02:01:25 10° NNE
CZ-2D R/B 2.0 01:54:23 10° NNE 01:59:41 66° WNW 02:00:16 61° W
Resurs 1-4 Rocket 2.1 01:54:51 10° NNE 02:00:06 64° WNW 02:00:42 59° W
Cosmos 1932 4.5 02:00:50 52° SW 02:02:21 72° SSE 02:08:39 10° E
Cosmos 2058 3.6 01:59:02 10° NNW 02:03:07 54° ENE 02:07:11 10° SE
YAOGAN 11 4.0 02:01:44 42° SE 02:03:07 80° ENE 02:07:26 10° NNW
CZ-2C R/B 4.1 02:06:01 23° WNW 02:06:01 23° WNW 02:08:58 10° NNW
YAOGAN 6 3.8 02:02:05 10° NNE 02:05:14 34° E 02:05:37 33° ESE
COSMOS 2441 4.3 02:01:46 10° NNE 02:06:34 68° WNW 02:06:53 65° W
Cosmos 2098 Rocket 3.9 02:05:37 53° WSW 02:06:49 66° WNW 02:13:21 10° NNE
APEX 3.5 02:08:49 60° N 02:09:05 62° NNE 02:13:07 10° ESE
Cosmos 1300 Rocket 3.7 02:09:32 56° NW 02:09:32 56° NW 02:13:28 10° NNE
Sich 1 Rocket 3.8 02:09:51 52° SSE 02:10:49 70° ESE 02:15:16 10° NNE
SeaSat 1 3.7 02:06:37 10° NE 02:11:10 35° ESE 02:13:31 23° SSE
Cosmos 1908 Rocket 4.5 02:11:52 36° NW 02:11:52 36° NW 02:15:34 10° NNE
Cosmos 2219 3.6 02:09:53 38° WNW 02:11:53 58° NNW 02:17:35 10° ENE
Cosmos 724 4.2 02:12:04 51° WSW 02:13:12 61° SSW 02:18:55 10° SE
Lacrosse 5 rocket 3.3 02:18:56 14° SE 02:18:56 14° SE 02:20:04 10° SE
Cosmos 1459 Rocket 3.9 02:12:58 10° NNW 02:19:22 89° W 02:25:41 10° SSE
CZ-2C R/B 3.0 02:15:22 10° NNE 02:20:45 74° WNW 02:21:57 52° SW
Cosmos 968 Rocket 3.4 02:16:35 10° NW 02:21:45 62° WSW 02:26:50 10° SSE
AQUA 3.8 02:17:17 10° NNE 02:21:59 64° WNW 02:22:34 58° W
FENGYUN 3A 3.6 02:17:37 10° NNE 02:23:01 72° WNW 02:24:27 49° SW
Cosmos 1727 Rocket 4.5 02:17:56 10° S 02:24:06 61° E 02:30:22 10° NNE
H-2A R/B 3.9 02:20:55 10° NNE 02:25:34 30° E 02:30:07 10° SSE
Cosmos 1607 4.1 02:24:07 40° W 02:25:54 51° SW 02:32:08 10° SE
Cosmos 2100 Rocket 3.9 02:19:58 10° NNW 02:26:12 80° WSW 02:32:27 10° S
Cosmos 1892 Rocket 3.5 02:23:11 10° NNW 02:27:39 69° WSW 02:28:26 56° SSW
SKYMED 2 4.2 02:23:23 10° SE 02:27:40 57° ENE 02:31:57 10° NNW
Cosmos 1437 Rocket 3.0 02:25:44 10° NNW 02:29:29 62° ENE 02:33:09 10° SE
IDEFIX/ARIANE 42P 3.1 02:25:21 10° NNE 02:30:19 44° NW 02:31:18 39° W
Cosmos 192 4.4 02:30:45 44° SSW 02:32:17 75° SE 02:37:15 10° NE
Cosmos 1125 Rocket 4.4 02:31:48 30° WNW 02:33:44 40° NNW 02:38:41 10° NE
Cosmos 1605 Rocket 4.3 02:29:22 10° NNW 02:35:05 42° W 02:36:08 39° WSW
ALOS 2.2 02:33:39 10° NNE 02:38:16 68° WNW 02:39:19 51° WSW
Cosmos 1346 Rocket 2.9 02:40:17 56° WNW 02:40:17 56° WNW 02:44:11 10° NNE
SL-27 R/B 3.8 02:38:56 22° NNW 02:40:19 32° NNE 02:43:13 10° E
Cosmos 1802 Rocket 3.9 02:36:10 10° NNW 02:42:28 82° WSW 02:48:40 10° S
Thor Agena Rocket 3.7 02:37:29 10° NNE 02:42:49 77° ESE 02:46:08 24° SSW
Cosmos 2151 Rocket 3.5 02:41:41 49° SW 02:42:50 77° WNW 02:47:19 10° NNE
Cosmos 1626 Rocket 3.6 02:40:41 10° NNW 02:45:06 82° ENE 02:49:28 10° SSE
Cosmos 371 Rocket 3.9 02:41:38 10° NW 02:46:23 55° NNE 02:51:10 10° ESE
CENTAUR R/B 3.7 02:42:43 19° SSW 02:46:55 41° SE 02:54:04 10° ENE
Cosmos 2227 Rocket 2.7 02:44:01 25° WNW 02:47:17 54° N 02:52:51 10° E
CZ-4 R/B 3.8 02:45:21 10° NNE 02:50:17 77° WNW 02:52:23 35° SW
IRS-1D 3.6 02:45:15 10° NNE 02:50:27 76° ESE 02:54:00 20° SSW
Cosmos 1455 3.5 02:51:34 25° NW 02:51:34 25° NW 02:54:00 10° N
Cosmos 1441 Rocket 4.4 02:52:23 27° NW 02:52:23 27° NW 02:55:10 10° N
ARIANE 5 R/B 4.4 02:48:34 10° NNE 02:52:56 29° E 02:57:17 10° SSE
Okean 1 Rocket 2.9 02:52:47 34° SSW 02:54:40 88° WNW 02:59:02 10° NNE
Cosmos 1758 Rocket 3.6 02:53:31 10° NNW 02:57:55 77° ENE 03:02:15 10° SSE
Meteor 2-3 Rocket 3.8 02:53:30 10° NNW 02:59:15 82° ENE 03:04:54 10° SSE
USA 81 4.1 02:57:14 34° SW 02:59:24 58° WNW 03:04:38 10° N
Cosmos 1844 Rocket 2.7 02:58:19 34° WSW 03:00:51 72° NNW 03:06:35 10° ENE
SJ 16-02 1.3 02:57:43 12° NW 03:01:41 56° WSW 03:05:59 10° SSE
Cosmos 1241 Rocket 4.4 02:58:37 30° W 03:01:55 87° S 03:08:11 10° E
Cosmos 2233 Rocket 4.0 02:57:01 10° NNW 03:03:21 88° ENE 03:09:37 10° SSE
Cosmos 1486 Rocket 4.0 02:58:17 10° NW 03:03:41 90° NE 03:09:02 10° SE
DMSP B5D2-2 4.5 03:02:52 29° SW 03:04:52 39° W 03:09:50 10° NNW
Cosmos 1953 3.8 03:07:25 21° NW 03:07:30 21° NW 03:10:34 10° N
Cosmos 1602 Rocket 3.6 03:03:34 10° NNW 03:08:03 83° ENE 03:12:29 10° SSE
Timation 2 Rocket 4.2 03:04:23 29° WSW 03:08:12 85° NNW 03:15:10 10° ENE
Meteor 2-15 Rocket 4.3 03:02:22 10° NNW 03:08:30 80° WSW 03:14:38 10° S
ADEOS II 2.7 03:05:44 10° NNE 03:10:37 40° NW 03:12:33 30° W
Cosmos 2082 4.2 03:07:24 24° WNW 03:10:47 55° N 03:16:27 10° ENE
Cosmos 1818 4.1 03:09:54 31° W 03:11:33 39° SW 03:16:36 10° SSE
Cosmos 1864 Rocket 4.5 03:07:31 10° NNW 03:13:50 66° W 03:20:08 10° S
CBERS-1 4.5 03:09:16 10° NNE 03:14:24 63° ESE 03:19:30 10° S
Cosmos 1943 Rocket 3.4 03:10:04 10° S 03:15:06 38° ESE 03:20:10 10° NE
CZ-2C R/B 2.1 03:10:36 10° NNE 03:15:11 77° WNW 03:18:04 23° SSW
Cosmos 2056 Rocket 3.5 03:12:00 24° SSW 03:15:12 81° SE 03:20:21 10° NE
COSMO-SKYMED 1 2.4 03:11:20 10° SSE 03:15:42 77° WSW 03:20:05 10° NNW
Cosmos 2123 Rocket 4.4 03:09:38 10° S 03:15:44 65° E 03:21:53 10° NNE
Cosmos 1777 Rocket 4.1 03:11:26 10° NW 03:16:41 75° NE 03:21:54 10° SE
Cosmos 2082 Rocket 3.9 03:20:07 15° SSW 03:20:07 15° SSW 03:21:18 10° SSW
Okean 2 Rocket 3.3 03:17:34 34° WSW 03:19:06 49° WNW 03:23:26 10° NNE
Cosmos 2173 Rocket 4.1 03:13:23 10° NNW 03:19:13 48° W 03:25:04 10° SSW
Cosmos 1500 4.4 03:16:10 10° N 03:19:33 41° ENE 03:22:54 10° SE
SL-24 R/B 4.3 03:14:13 10° NNE 03:19:37 82° WNW 03:23:12 17° SSW
SL-08 R/B 3.4 03:15:20 10° SSE 03:20:17 88° ENE 03:25:12 10° NNW
Cosmos 2297 Rocket 2.6 03:19:04 15° WNW 03:23:46 64° NNE 03:29:26 10° ESE
NOAA 11 4.1 03:18:40 10° NNE 03:24:10 77° WNW 03:28:50 14° SSW
Cosmos 1833 4.2 03:18:45 10° NW 03:24:30 67° SW 03:30:11 10° SE
Cosmos 1844 3.8 03:21:57 27° W 03:25:01 67° NNW 03:30:37 10° ENE
Cosmos 1354 Rocket 4.1 03:20:08 10° NW 03:25:25 80° NE 03:30:42 10° SE
Cosmos 1452 Rocket 4.3 03:21:02 10° SSW 03:26:07 50° ESE 03:31:14 10° NE
Helios 1A 2.8 03:23:06 10° S 03:27:10 65° WSW 03:31:17 10° NNW
METEOR-M 4.2 03:22:01 10° NNE 03:27:20 64° WNW 03:31:07 19° SW
COSMOS 2455 2.9 03:24:07 25° W 03:27:52 83° N 03:33:57 10° E
Cosmos 2016 Rocket 4.0 03:23:28 10° NNW 03:29:42 58° W 03:35:50 10° S
Envisat 3.0 03:25:27 10° NNE 03:30:29 62° WNW 03:34:03 19° SW
Cosmos 1484 Rocket 2.9 03:27:57 10° NNE 03:31:47 76° ESE 03:35:38 10° SSW
SL-16 R/B 4.3 03:33:58 13° WNW 03:33:58 13° WNW 03:35:49 10° NW
COSMOS 2406 4.4 03:34:58 21° SW 03:34:58 21° SW 03:38:02 10° SSW
Cosmos 304 Rocket 4.0 03:28:55 10° NW 03:33:46 73° NE 03:38:35 10° SE
Cosmos 2278 Rocket 2.6 03:28:50 12° SSW 03:34:06 62° SE 03:39:43 10° NE
CZ-4C R/B 2.9 03:33:08 18° SW 03:37:05 52° SSE 03:43:36 10° ENE
Cosmos 2263 Rocket 2.7 03:33:15 19° WNW 03:37:21 55° N 03:42:58 10° E
YAOGAN 6 2.7 03:34:36 10° NNE 03:37:53 46° WNW 03:39:00 32° WSW
Cosmos 1544 2.5 03:34:55 10° NNW 03:38:02 88° ENE 03:41:07 10° SSE
Cosmos 1271 Rocket 4.4 03:34:41 10° NNW 03:38:04 33° NE 03:41:27 10° ESE
Cosmos 1464 Rocket 4.3 03:32:40 10° NNW 03:38:50 69° ENE 03:44:57 10° SSE
CZ-2D R/B 3.2 03:34:34 10° NNE 03:39:04 29° NW 03:41:34 20° WNW
Resurs 1-4 Rocket 3.3 03:34:50 10° NNE 03:39:16 28° NW 03:41:46 19° WNW
Cosmos 1725 Rocket 4.1 03:33:26 10° NNW 03:39:34 53° W 03:45:37 10° SSW
Cosmos 2058 3.4 03:35:52 10° NNW 03:39:41 37° W 03:43:30 10° SSW
Cosmos 1624 Rocket 4.0 03:37:03 19° SW 03:40:57 82° NW 03:46:21 10° NE
Cosmos 2344 4.2 03:37:09 10° SW 03:44:03 52° SE 03:51:50 10° ENE
Cosmos 1825 Rocket 3.5 03:39:45 10° NNW 03:44:13 88° E 03:48:35 10° SSE
APEX 3.3 03:41:53 21° WNW 03:44:19 60° SW 03:48:22 10° SE
Okean 1-7 Rocket 3.6 03:42:04 10° NNW 03:46:25 55° W 03:50:42 10° S
GP-B 4.5 03:43:17 10° N 03:47:32 43° ENE 03:51:46 10° SSE
SeaSat 1 2.4 03:44:10 10° NE 03:49:08 88° SE 03:53:15 15° SW
Sich 1 Rocket 4.3 03:47:17 23° WSW 03:49:19 35° NW 03:53:27 10° NNE
Cosmos 1932 4.5 03:45:13 20° W 03:49:50 80° S 03:56:08 10° E
Cosmos 1371 Rocket 4.0 03:46:12 18° SW 03:50:12 75° NW 03:55:27 10° NE
Cosmos 1455 Rocket 3.0 03:45:50 10° SSW 03:50:12 69° WNW 03:54:39 10° NNE
TRACE 4.5 03:46:44 10° S 03:50:21 69° WSW 03:53:59 10° NNW
PAYLOAD A 4.2 03:46:03 10° NNE 03:51:12 59° WNW 03:56:13 11° SW
Cosmos 2061 Rocket 4.1 03:45:34 10° NNW 03:51:36 55° W 03:57:40 10° S
Lacrosse 5 rocket 2.9 03:53:55 15° SW 03:55:16 18° S 03:57:46 10° SE
Cosmos 405 Rocket 3.2 03:51:50 10° S 03:55:25 59° ESE 03:59:05 10° NNE
Cosmos 1953 Rocket 3.7 03:51:38 10° NNW 03:56:07 79° ENE 04:00:35 10° SSE
Cosmos 2219 3.7 03:51:46 14° WNW 03:56:47 58° NNE 04:02:29 10° E
Cosmos 1503 Rocket 3.9 03:53:00 10° NW 03:58:12 69° SW 04:03:25 10° SSE
Cosmos 1862 3.1 03:55:31 10° NNW 03:59:22 74° WSW 04:03:12 10° S
CZ-2C R/B 4.1 03:55:22 10° NNE 04:00:01 30° NW 04:02:58 18° W
SKYMED 2 4.0 03:59:57 10° SSW 04:04:03 39° W 04:08:11 10° NNW
Cosmos 1437 Rocket 3.4 04:01:47 10° NW 04:05:04 28° W 04:08:16 10° SSW
H-2A R/B 2.1 04:00:15 10° NNE 04:05:38 89° WNW 04:10:50 10° SSW
Cosmos 1420 Rocket 4.1 04:02:35 16° WSW 04:06:46 63° NW 04:11:57 10° NE
Cosmos 1891 Rocket 4.4 04:01:18 10° NNW 04:07:36 78° WSW 04:13:44 10° S
IDEFIX/ARIANE 42P 4.1 04:04:58 10° NNE 04:08:54 22° NNW 04:12:04 13° WNW
H-2A R/B 2.3 04:06:00 10° NNE 04:09:22 82° WNW 04:12:43 10° SSW
Cosmos 1727 Rocket 4.2 04:03:38 10° SW 04:09:49 53° WNW 04:16:03 10° NNE
Cosmos 1072 Rocket 4.5 04:03:48 10° NNW 04:10:01 86° WSW 04:16:17 10° SSE
Cosmos 1939 Rocket 2.8 04:07:18 10° NNE 04:11:22 84° WNW 04:15:25 10° SSW
Cosmos 1331 Rocket 4.2 04:08:34 10° SSW 04:13:43 74° SE 04:18:54 10° NE
Genesis I 4.5 04:10:46 10° SSW 04:14:03 33° SSE 04:17:22 10° E
SL-27 R/B 2.0 04:11:02 10° NW 04:14:10 69° SW 04:17:18 10° SSE
ALOS 3.5 04:11:10 10° NNE 04:14:58 26° NW 04:17:40 15° W
Cosmos 1937 Rocket 4.1 04:11:50 10° NW 04:16:56 56° NNE 04:22:04 10° ESE
Cosmos 1346 Rocket 4.4 04:15:22 15° WNW 04:17:03 19° NW 04:19:56 10° N
ARGOS 3.6 04:14:03 10° NNE 04:19:30 70° ESE 04:24:56 10° S
Thor Agena Rocket 4.1 04:16:56 10° NNE 04:21:53 41° NW 04:26:41 11° WSW
Cosmos 1626 Rocket 4.5 04:18:51 10° NNW 04:22:30 26° W 04:26:07 10° SW
Cosmos 2151 2.9 04:20:39 10° NNW 04:24:51 80° WSW 04:29:03 10° S
Cosmos 1455 4.4 04:26:12 10° NW 04:26:51 10° NNW 04:27:28 10° NNW
Cosmos 371 Rocket 3.4 04:22:04 10° NW 04:26:53 60° WSW 04:31:39 10° SSE
CZ-4C R/B 3.9 04:24:14 10° SE 04:27:57 59° ENE 04:31:52 10° NNW
Cosmos 1666 2.4 04:25:26 10° NNW 04:28:57 74° WSW 04:32:26 10° S
IRS-1D 4.1 04:24:38 10° NNE 04:29:27 40° NW 04:34:09 10° WSW
IRS-1C 4.2 04:24:06 10° NNE 04:29:29 90° WNW 04:34:51 10° SSW
Cosmos 1110 Rocket 4.0 04:26:21 10° SW 04:31:35 90° SSE 04:36:49 10° NE
Cosmos 2227 Rocket 2.4 04:26:14 10° WNW 04:31:56 75° NNE 04:37:38 10° ESE
ARIANE 5 R/B 2.5 04:27:35 10° NNE 04:32:37 88° WNW 04:37:38 10° SSW
Okean 1 Rocket 4.1 04:29:55 13° WSW 04:33:06 27° NW 04:36:50 10° N
SJ-12 4.1 04:29:15 10° NNE 04:33:15 74° ESE 04:37:13 10° SSW
Cosmos 1758 Rocket 4.4 04:31:42 10° NNW 04:35:25 28° W 04:39:06 10° SW
Cosmos 1634 Rocket 4.4 04:30:08 10° NNW 04:36:19 68° ENE 04:42:28 10° SSE
CZ-2D R/B 3.6 04:32:09 10° NNE 04:36:25 84° ESE 04:40:32 10° SSW
CENTAUR R/B 3.2 04:30:13 10° WSW 04:36:50 67° SSE 04:44:58 10° E
ATLAS CENTAUR R/B 3.2 04:34:33 10° SSW 04:37:31 24° SE 04:40:29 10° E
SJ 16-02 2.8 04:36:31 10° WNW 04:39:16 16° W 04:42:01 10° SW
Cosmos 332 Rocket 3.8 04:34:42 10° NW 04:39:32 84° SW 04:44:20 10° SE
Meteor 2-3 Rocket 4.3 04:37:00 10° NNW 04:42:04 34° W 04:47:03 10° SSW
Cosmos 1544 Rocket 3.7 04:37:40 10° SW 04:42:04 58° WNW 04:46:31 10° NNE
Aureole 1 Rocket 4.1 04:35:23 10° NW 04:42:45 86° SW 04:48:37 10° SE
Cosmos 2228 3.0 04:40:40 10° SSW 04:44:59 71° WNW 04:49:23 10° NNE
Cosmos 1898 Rocket 3.7 04:39:52 10° NW 04:45:14 78° NE 04:50:36 10° SE
Cosmos 1844 Rocket 3.1 04:39:58 11° W 04:45:23 54° N 04:50:59 10° ENE
CZ-2D R/B 3.7 04:42:18 10° NNE 04:45:57 63° ESE 04:49:35 10° S
SL-08 RB Rocket 3.7 04:42:59 10° NNE 04:47:29 86° ESE 04:51:58 10° SSW
Meteor 2-1 Rocket 4.3 04:42:04 10° SSW 04:47:59 70° WNW 04:53:53 10° NNE
ADEOS II 3.6 04:45:24 10° NNE 04:49:16 21° NNW 04:53:07 10° WNW
Cosmos 1726 Rocket 4.1 04:47:17 10° S 04:51:41 65° ESE 04:56:07 10° NNE
Cosmos 1602 3.5 04:48:42 10° NNW 04:52:20 65° WSW 04:55:57 10° S
COSMO-SKYMED 1 3.8 04:49:14 10° SW 04:52:34 21° W 04:55:56 10° NW
CZ-2C R/B 3.3 04:49:03 10° NNE 04:52:55 28° NW 04:56:46 10° W
CBERS-1 4.4 04:48:32 10° NNE 04:53:27 47° NW 04:58:20 10° WSW
Cosmos 1500 3.4 04:50:51 10° NNW 04:54:10 39° W 04:57:28 10° SSW
Cosmos 2082 4.1 04:49:51 10° WNW 04:55:36 65° NNE 05:01:19 10° ESE
Timation 2 Rocket 4.4 04:49:27 10° W 04:56:15 66° N 05:03:09 10° E
IRS-P3 4.1 04:51:17 10° NNE 04:56:39 77° WNW 05:01:59 10° SSW
Cosmos 990 Rocket 4.0 04:51:42 10° NW 04:56:58 70° SW 05:02:12 10° SSE
Helios 1B rocket 3.8 04:53:42 10° NNE 04:57:29 43° ESE 05:01:15 10° S
Cosmos 2056 Rocket 3.9 04:52:44 10° W 04:57:42 47° NNW 05:02:40 10° NE
DELTA 2 DEB (DPAF) 4.2 04:54:02 10° S 04:58:14 52° WSW 05:02:26 10° NNW
Cosmos 1943 Rocket 2.2 04:52:56 10° SW 04:58:28 89° SSE 05:04:04 10° NE
Cosmos 1777 Rocket 4.4 04:53:38 10° NW 04:58:31 41° WSW 05:03:22 10° S
SL-08 R/B 4.2 04:54:17 10° SSW 04:58:34 29° W 05:02:50 10° NNW
Cosmos 372 Rocket 4.1 04:53:38 10° NW 04:58:46 78° NE 05:03:55 10° SE
SJ-11-01 4.4 04:54:55 10° NNE 04:59:39 82° ESE 05:04:19 10° SSW
Cosmos 2123 Rocket 4.2 04:55:29 10° SW 05:01:29 49° WNW 05:07:31 10° NNE
Helios 1A 4.4 05:00:26 10° SW 05:03:10 17° W 05:05:55 10° NW
Meteor 2-19 Rocket 4.5 04:59:16 10° SSW 05:05:24 72° WNW 05:11:37 10° NNE
Cosmos 1484 Rocket 3.7 05:02:06 10° N 05:05:26 29° NW 05:08:46 10° WSW
Cosmos 1869 3.4 05:01:49 10° SW 05:05:35 49° WNW 05:09:20 10° NNE
NOAA 12 4.1 05:00:48 10° NNE 05:06:08 79° WNW 05:11:29 10° SSW
NOSS 3-2 (A) 4.0 05:00:18 10° WSW 05:06:16 66° SSE 05:13:32 10° E
Cosmos 1606 2.7 05:03:39 10° SW 05:07:10 53° WNW 05:10:43 10° NNE
Cosmos 292 Rocket 4.0 05:02:22 10° NW 05:07:13 77° NE 05:12:00 10° SE
Cosmos 2297 Rocket 2.3 05:02:22 10° NW 05:08:03 71° SW 05:13:41 10° SE
Cosmos 2034 Rocket 4.1 05:01:45 10° NNW 05:08:04 65° W 05:14:22 10° S
Cosmos 1452 Rocket 3.6 05:02:56 10° WSW 05:08:12 66° NW 05:13:30 10° NE
Envisat 4.1 05:04:39 10° NNE 05:08:49 26° NW 05:12:59 10° W
ASTEX 1 4.3 05:04:21 10° SSE 05:09:05 53° ENE 05:13:50 10° N
Meteor 1-20 Rocket 4.2 05:04:02 10° NNW 05:09:43 78° WSW 05:15:14 10° SSE
Cosmos 1844 4.1 05:04:18 10° WNW 05:09:48 54° N 05:15:19 10° E
Cosmos 1076 Rocket 3.7 05:06:10 10° NNW 05:10:19 49° W 05:14:29 10° S
